Time,TemperatureF,DewpointF,PressureIn,WindDirection,WindDirectionDegrees,WindSpeedMPH,WindSpeedGustMPH,Humidity,HourlyPrecipIn,Conditions,Clouds,dailyrainin,SoftwareType,DateUTC
2013-02-21 00:00:00,13.2,9.6,30.39,NW,326,0.0,2.0,85,0.00,,---,0.00,VWS V14.01,2013-02-21 06:00:00,
2013-02-21 00:05:00,13.1,9.4,30.39,NW,326,0.0,0.0,85,0.00,,---,0.00,VWS V14.01,2013-02-21 06:05:00,
2013-02-21 00:10:00,13.1,9.4,30.39,NW,326,0.0,0.0,85,0.00,,---,0.00,VWS V14.01,2013-02-21 06:10:00,
2013-02-21 00:15:00,13.0,9.4,30.39,NW,326,0.0,0.0,85,0.00,,---,0.00,VWS V14.01,2013-02-21 06:15:00,
2013-02-21 00:20:00,13.1,9.7,30.39,NW,326,1.0,2.0,86,0.00,,---,0.00,VWS V14.01,2013-02-21 06:20:00,
2013-02-21 00:25:00,13.2,9.8,30.39,NW,326,0.0,2.0,86,0.00,,---,0.00,VWS V14.01,2013-02-21 06:25:00,
2013-02-21 00:30:00,13.3,9.9,30.39,NW,326,0.0,0.0,86,0.00,,---,0.00,VWS V14.01,2013-02-21 06:30:00,
2013-02-21 00:35:00,13.4,10.0,30.40,NW,326,0.0,1.0,86,0.00,,---,0.00,VWS V14.01,2013-02-21 06:35:00,
2013-02-21 00:40:00,13.5,10.4,30.39,NW,326,0.0,1.0,87,0.00,,---,0.00,VWS V14.01,2013-02-21 06:40:00,
2013-02-21 00:45:00,13.7,10.6,30.39,NW,326,0.0,1.0,87,0.00,,---,0.00,VWS V14.01,2013-02-21 06:45:00,
2013-02-21 00:49:00,13.9,10.8,30.39,NW,326,0.0,1.0,87,0.00,,---,0.00,VWS V14.01,2013-02-21 06:49:00,
2013-02-21 00:54:00,14.1,10.9,30.39,NW,326,0.0,2.0,87,0.00,,---,0.00,VWS V14.01,2013-02-21 06:54:00,
2013-02-21 00:59:00,14.2,10.8,30.38,NW,326,0.0,1.0,86,0.00,,---,0.00,VWS V14.01,2013-02-21 06:59:00,
2013-02-21 01:04:00,14.3,10.9,30.39,NW,326,0.0,1.0,86,0.00,,---,0.00,VWS V14.01,2013-02-21 07:04:00,
2013-02-21 01:09:00,14.3,10.9,30.39,NW,326,1.0,2.0,86,0.00,,---,0.00,VWS V14.01,2013-02-21 07:09:00,
2013-02-21 01:14:00,14.4,11.0,30.38,NW,326,0.0,2.0,86,0.00,,---,0.00,VWS V14.01,2013-02-21 07:14:00,
2013-02-21 01:19:00,14.5,11.1,30.38,NW,326,0.0,0.0,86,0.00,,---,0.00,VWS V14.01,2013-02-21 07:19:00,
2013-02-21 01:24:00,14.6,11.2,30.39,NW,326,0.0,0.0,86,0.00,,---,0.00,VWS V14.01,2013-02-21 07:24:00,
2013-02-21 01:29:00,14.6,11.2,30.39,NW,326,0.0,0.0,86,0.00,,---,0.00,VWS V14.01,2013-02-21 07:29:00,
2013-02-21 01:34:00,14.7,11.3,30.39,NW,326,0.0,1.0,86,0.00,,---,0.00,VWS V14.01,2013-02-21 07:34:00,
2013-02-21 01:39:00,14.8,11.4,30.39,NW,326,0.0,1.0,86,0.00,,---,0.00,VWS V14.01,2013-02-21 07:39:00,
2013-02-21 01:44:00,14.9,11.5,30.39,NW,326,1.0,1.0,86,0.00,,---,0.00,VWS V14.01,2013-02-21 07:44:00,
2013-02-21 01:49:00,15.0,11.6,30.39,NW,326,0.0,0.0,86,0.00,,---,0.00,VWS V14.01,2013-02-21 07:49:00,
2013-02-21 01:54:00,15.2,11.8,30.39,NW,326,0.0,2.0,86,0.00,,---,0.00,VWS V14.01,2013-02-21 07:54:00,
2013-02-21 01:59:00,15.4,12.0,30.39,NW,326,1.0,2.0,86,0.00,,---,0.00,VWS V14.01,2013-02-21 07:59:00,
2013-02-21 02:04:00,15.8,12.4,30.39,NW,326,2.0,3.0,86,0.00,,---,0.00,VWS V14.01,2013-02-21 08:04:00,
2013-02-21 02:09:00,16.1,12.4,30.39,NW,326,2.0,5.0,85,0.00,,---,0.00,VWS V14.01,2013-02-21 08:09:00,
2013-02-21 02:14:00,16.3,12.3,30.39,NW,326,1.0,3.0,84,0.00,,---,0.00,VWS V14.01,2013-02-21 08:14:00,
2013-02-21 02:19:00,16.6,12.9,30.39,NW,326,0.0,4.0,85,0.00,,---,0.00,VWS V14.01,2013-02-21 08:19:00,
2013-02-21 02:24:00,16.8,12.8,30.39,NW,326,1.0,3.0,84,0.00,,---,0.00,VWS V14.01,2013-02-21 08:24:00,
2013-02-21 02:29:00,17.0,13.0,30.39,NW,326,0.0,3.0,84,0.00,,---,0.00,VWS V14.01,2013-02-21 08:29:00,
2013-02-21 02:34:00,17.1,13.1,30.39,NW,326,0.0,3.0,84,0.00,,---,0.00,VWS V14.01,2013-02-21 08:34:00,
2013-02-21 02:39:00,17.2,12.9,30.38,NW,326,1.0,1.0,83,0.00,,---,0.00,VWS V14.01,2013-02-21 08:39:00,
2013-02-21 02:44:00,17.4,13.1,30.38,NW,326,0.0,2.0,83,0.00,,---,0.00,VWS V14.01,2013-02-21 08:44:00,
2013-02-21 02:49:00,17.5,13.2,30.38,NW,326,1.0,3.0,83,0.00,,---,0.00,VWS V14.01,2013-02-21 08:49:00,
2013-02-21 02:54:00,17.5,12.9,30.38,NNW,327,0.0,4.0,82,0.00,,---,0.00,VWS V14.01,2013-02-21 08:54:00,
2013-02-21 02:59:00,17.6,13.3,30.38,NNW,327,0.0,3.0,83,0.00,,---,0.00,VWS V14.01,2013-02-21 08:59:00,
2013-02-21 03:04:00,17.7,13.4,30.38,NNW,329,0.0,4.0,83,0.00,,---,0.00,VWS V14.01,2013-02-21 09:04:00,
2013-02-21 03:09:00,17.9,13.6,30.37,NNW,330,3.0,4.0,83,0.00,,---,0.00,VWS V14.01,2013-02-21 09:09:00,
2013-02-21 03:14:00,18.0,13.7,30.37,NNW,331,1.0,4.0,83,0.00,,---,0.00,VWS V14.01,2013-02-21 09:14:00,
2013-02-21 03:19:00,18.1,13.8,30.37,NNW,339,3.0,5.0,83,0.00,,---,0.00,VWS V14.01,2013-02-21 09:19:00,
2013-02-21 03:24:00,18.3,14.0,30.37,NNW,342,0.0,6.0,83,0.00,,---,0.00,VWS V14.01,2013-02-21 09:24:00,
2013-02-21 03:29:00,18.4,14.1,30.37,NNW,342,1.0,4.0,83,0.00,,---,0.00,VWS V14.01,2013-02-21 09:29:00,
2013-02-21 03:34:00,18.6,14.3,30.37,NNW,348,3.0,7.0,83,0.00,,---,0.00,VWS V14.01,2013-02-21 09:34:00,
2013-02-21 03:39:00,18.8,14.5,30.38,North,349,3.0,7.0,83,0.00,,---,0.00,VWS V14.01,2013-02-21 09:39:00,
2013-02-21 03:44:00,18.9,14.6,30.38,North,349,1.0,4.0,83,0.00,,---,0.00,VWS V14.01,2013-02-21 09:44:00,
2013-02-21 03:49:00,19.1,14.8,30.38,North,355,1.0,4.0,83,0.00,,---,0.00,VWS V14.01,2013-02-21 09:49:00,
2013-02-21 03:54:00,19.2,14.6,30.39,North,355,2.0,6.0,82,0.00,,---,0.00,VWS V14.01,2013-02-21 09:54:00,
2013-02-21 03:59:00,19.3,14.7,30.39,North,355,2.0,5.0,82,0.00,,---,0.00,VWS V14.01,2013-02-21 09:59:00,
2013-02-21 04:04:00,19.4,15.1,30.40,North,355,4.0,6.0,83,0.00,,---,0.00,VWS V14.01,2013-02-21 10:04:00,
2013-02-21 04:09:00,19.6,15.3,30.40,North,355,1.0,5.0,83,0.00,,---,0.00,VWS V14.01,2013-02-21 10:09:00,
2013-02-21 04:14:00,19.7,15.4,30.40,North,355,0.0,2.0,83,0.00,,---,0.00,VWS V14.01,2013-02-21 10:14:00,
2013-02-21 04:19:00,19.7,15.4,30.40,North,355,3.0,4.0,83,0.00,,---,0.00,VWS V14.01,2013-02-21 10:19:00,
2013-02-21 04:24:00,19.7,15.4,30.40,North,350,1.0,6.0,83,0.00,,---,0.00,VWS V14.01,2013-02-21 10:24:00,
2013-02-21 04:29:00,19.7,15.4,30.40,North,350,0.0,4.0,83,0.00,,---,0.00,VWS V14.01,2013-02-21 10:29:00,
2013-02-21 04:34:00,19.7,15.4,30.40,North,350,0.0,3.0,83,0.00,,---,0.00,VWS V14.01,2013-02-21 10:34:00,
2013-02-21 04:39:00,19.7,15.4,30.41,North,351,1.0,6.0,83,0.00,,---,0.00,VWS V14.01,2013-02-21 10:39:00,
2013-02-21 04:44:00,19.8,15.5,30.41,North,351,2.0,4.0,83,0.00,,---,0.00,VWS V14.01,2013-02-21 10:44:00,
2013-02-21 04:49:00,19.8,15.5,30.42,North,355,0.0,6.0,83,0.00,,---,0.00,VWS V14.01,2013-02-21 10:49:00,
2013-02-21 04:54:00,19.9,15.3,30.42,North,355,0.0,7.0,82,0.00,,---,0.00,VWS V14.01,2013-02-21 10:54:00,
2013-02-21 04:59:00,19.9,15.6,30.42,North,355,0.0,3.0,83,0.00,,---,0.00,VWS V14.01,2013-02-21 10:59:00,
2013-02-21 05:04:00,19.9,15.6,30.41,North,355,0.0,7.0,83,0.00,,---,0.00,VWS V14.01,2013-02-21 11:04:00,
2013-02-21 05:09:00,19.9,15.6,30.41,North,360,1.0,6.0,83,0.00,,---,0.00,VWS V14.01,2013-02-21 11:09:00,
2013-02-21 05:14:00,19.9,15.6,30.41,North,355,0.0,5.0,83,0.00,,---,0.00,VWS V14.01,2013-02-21 11:14:00,
2013-02-21 05:19:00,19.9,15.6,30.41,North,355,0.0,7.0,83,0.00,,---,0.00,VWS V14.01,2013-02-21 11:19:00,
2013-02-21 05:24:00,19.9,15.6,30.40,North,355,1.0,5.0,83,0.00,,---,0.00,VWS V14.01,2013-02-21 11:24:00,
2013-02-21 05:29:00,19.9,15.6,30.39,North,355,1.0,8.0,83,0.00,,---,0.00,VWS V14.01,2013-02-21 11:29:00,
2013-02-21 05:34:00,19.9,15.6,30.38,North,5,2.0,6.0,83,0.00,,---,0.00,VWS V14.01,2013-02-21 11:34:00,
2013-02-21 05:39:00,19.8,15.5,30.38,North,360,0.0,7.0,83,0.00,,---,0.00,VWS V14.01,2013-02-21 11:39:00,
2013-02-21 05:44:00,19.8,15.8,30.38,North,360,2.0,3.0,84,0.00,,---,0.00,VWS V14.01,2013-02-21 11:44:00,
2013-02-21 05:49:00,19.8,15.8,30.37,North,360,4.0,5.0,84,0.00,,---,0.00,VWS V14.01,2013-02-21 11:49:00,
2013-02-21 05:54:00,19.8,15.8,30.37,North,5,2.0,5.0,84,0.00,,---,0.00,VWS V14.01,2013-02-21 11:54:00,
2013-02-21 05:59:00,19.9,15.9,30.37,North,5,4.0,6.0,84,0.00,,---,0.00,VWS V14.01,2013-02-21 11:59:00,
2013-02-21 06:04:00,20.0,15.9,30.37,North,5,1.0,3.0,84,0.00,,---,0.00,VWS V14.01,2013-02-21 12:04:00,
2013-02-21 06:09:00,20.0,16.2,30.37,North,5,1.0,3.0,85,0.00,,---,0.00,VWS V14.01,2013-02-21 12:09:00,
2013-02-21 06:13:00,20.1,16.3,30.38,North,5,0.0,4.0,85,0.00,,---,0.00,VWS V14.01,2013-02-21 12:13:00,
2013-02-21 06:18:00,20.2,16.4,30.40,North,5,1.0,3.0,85,0.00,,---,0.00,VWS V14.01,2013-02-21 12:18:00,
2013-02-21 06:23:00,20.3,16.8,30.38,North,9,0.0,3.0,86,0.00,,---,0.00,VWS V14.01,2013-02-21 12:23:00,
2013-02-21 06:28:00,20.4,16.9,30.37,North,5,1.0,3.0,86,0.00,,---,0.00,VWS V14.01,2013-02-21 12:28:00,
2013-02-21 06:33:00,20.5,17.0,30.38,North,5,0.0,3.0,86,0.00,,---,0.00,VWS V14.01,2013-02-21 12:33:00,
2013-02-21 06:38:00,20.6,17.1,30.39,North,5,3.0,4.0,86,0.00,,---,0.00,VWS V14.01,2013-02-21 12:38:00,
2013-02-21 06:43:00,20.6,17.1,30.38,North,5,0.0,2.0,86,0.00,,---,0.00,VWS V14.01,2013-02-21 12:43:00,
2013-02-21 06:48:00,20.7,17.2,30.38,North,5,0.0,3.0,86,0.00,,---,0.00,VWS V14.01,2013-02-21 12:48:00,
2013-02-21 06:53:00,20.8,17.3,30.38,North,5,0.0,1.0,86,0.00,,---,0.00,VWS V14.01,2013-02-21 12:53:00,
2013-02-21 06:58:00,20.8,17.5,30.39,North,5,0.0,1.0,87,0.00,,---,0.00,VWS V14.01,2013-02-21 12:58:00,
2013-02-21 07:03:00,20.9,17.6,30.39,North,9,1.0,3.0,87,0.00,,---,0.00,VWS V14.01,2013-02-21 13:03:00,
2013-02-21 07:08:00,21.0,17.8,30.39,North,5,1.0,4.0,87,0.00,,---,0.00,VWS V14.01,2013-02-21 13:08:00,
2013-02-21 07:13:00,21.1,17.8,30.40,North,9,0.0,4.0,87,0.00,,---,0.00,VWS V14.01,2013-02-21 13:13:00,
2013-02-21 07:18:00,21.1,17.8,30.39,North,5,1.0,6.0,87,0.00,,---,0.00,VWS V14.01,2013-02-21 13:18:00,
2013-02-21 07:23:00,21.2,17.9,30.39,NNE,13,2.0,5.0,87,0.00,,---,0.00,VWS V14.01,2013-02-21 13:23:00,
2013-02-21 07:28:00,21.1,17.8,30.39,NNE,20,0.0,5.0,87,0.00,,---,0.00,VWS V14.01,2013-02-21 13:28:00,
2013-02-21 07:33:00,21.2,17.9,30.39,NNE,13,2.0,4.0,87,0.00,,---,0.00,VWS V14.01,2013-02-21 13:33:00,
2013-02-21 07:38:00,21.1,17.8,30.39,NNE,13,4.0,7.0,87,0.00,,---,0.00,VWS V14.01,2013-02-21 13:38:00,
2013-02-21 07:43:00,21.1,17.8,30.40,NNE,15,3.0,3.0,87,0.00,,---,0.00,VWS V14.01,2013-02-21 13:43:00,
2013-02-21 07:48:00,21.1,17.8,30.40,NNE,12,1.0,6.0,87,0.00,,---,0.00,VWS V14.01,2013-02-21 13:48:00,
2013-02-21 07:53:00,21.1,17.8,30.40,NNE,13,0.0,1.0,87,0.00,,---,0.00,VWS V14.01,2013-02-21 13:53:00,
2013-02-21 07:58:00,21.1,17.8,30.40,NNE,13,1.0,4.0,87,0.00,,---,0.00,VWS V14.01,2013-02-21 13:58:00,
2013-02-21 08:03:00,21.1,17.8,30.40,NNE,13,0.0,2.0,87,0.00,,---,0.00,VWS V14.01,2013-02-21 14:03:00,
2013-02-21 08:08:00,21.1,17.8,30.41,NNE,13,0.0,2.0,87,0.00,,---,0.00,VWS V14.01,2013-02-21 14:08:00,
2013-02-21 08:13:00,21.2,17.9,30.41,NNE,13,1.0,3.0,87,0.00,,---,0.00,VWS V14.01,2013-02-21 14:13:00,
2013-02-21 08:18:00,21.2,17.9,30.41,North,9,1.0,3.0,87,0.00,,---,0.00,VWS V14.01,2013-02-21 14:18:00,
2013-02-21 08:23:00,21.2,17.9,30.40,North,9,0.0,3.0,87,0.00,,---,0.00,VWS V14.01,2013-02-21 14:23:00,
2013-02-21 08:28:00,21.3,18.0,30.39,North,9,0.0,3.0,87,0.00,,---,0.00,VWS V14.01,2013-02-21 14:28:00,
2013-02-21 08:33:00,21.3,18.0,30.39,North,9,2.0,4.0,87,0.00,,---,0.00,VWS V14.01,2013-02-21 14:33:00,
2013-02-21 08:38:00,21.5,18.2,30.39,North,5,0.0,3.0,87,0.00,,---,0.00,VWS V14.01,2013-02-21 14:38:00,
2013-02-21 08:43:00,21.5,18.5,30.39,North,5,0.0,7.0,88,0.00,,---,0.00,VWS V14.01,2013-02-21 14:43:00,
2013-02-21 08:48:00,21.6,18.6,30.39,North,360,0.0,6.0,88,0.00,,---,0.00,VWS V14.01,2013-02-21 14:48:00,
2013-02-21 08:53:00,21.7,18.7,30.38,North,360,0.0,3.0,88,0.00,,---,0.00,VWS V14.01,2013-02-21 14:53:00,
2013-02-21 08:58:00,21.8,18.8,30.38,North,360,2.0,5.0,88,0.00,,---,0.00,VWS V14.01,2013-02-21 14:58:00,
2013-02-21 09:03:00,22.0,19.0,30.37,North,360,3.0,4.0,88,0.00,,---,0.00,VWS V14.01,2013-02-21 15:03:00,
2013-02-21 09:08:00,22.1,19.1,30.38,NNE,18,1.0,9.0,88,0.00,,---,0.00,VWS V14.01,2013-02-21 15:08:00,
2013-02-21 09:13:00,22.2,19.2,30.37,NNE,16,0.0,5.0,88,0.00,,---,0.00,VWS V14.01,2013-02-21 15:13:00,
2013-02-21 09:18:00,22.3,19.3,30.37,North,9,5.0,5.0,88,0.00,,---,0.00,VWS V14.01,2013-02-21 15:18:00,
2013-02-21 09:23:00,22.4,19.4,30.38,North,5,2.0,4.0,88,0.00,,---,0.00,VWS V14.01,2013-02-21 15:23:00,
2013-02-21 09:28:00,22.5,19.5,30.37,North,360,1.0,6.0,88,0.00,,---,0.00,VWS V14.01,2013-02-21 15:28:00,
2013-02-21 09:33:00,22.7,19.4,30.38,NNE,32,2.0,9.0,87,0.00,,---,0.00,VWS V14.01,2013-02-21 15:33:00,
2013-02-21 09:38:00,22.7,19.4,30.38,NNE,24,3.0,7.0,87,0.00,,---,0.00,VWS V14.01,2013-02-21 15:38:00,
2013-02-21 09:43:00,22.8,19.5,30.38,North,11,6.0,6.0,87,0.00,,---,0.00,VWS V14.01,2013-02-21 15:43:00,
2013-02-21 09:48:00,22.9,19.6,30.39,North,10,5.0,5.0,87,0.00,,---,0.00,VWS V14.01,2013-02-21 15:48:00,
2013-02-21 09:53:00,23.0,19.7,30.40,North,355,1.0,3.0,87,0.00,,---,0.00,VWS V14.01,2013-02-21 15:53:00,
2013-02-21 09:58:00,23.0,19.7,30.39,North,355,2.0,5.0,87,0.00,,---,0.00,VWS V14.01,2013-02-21 15:58:00,
2013-02-21 10:03:00,23.1,19.8,30.39,North,355,0.0,4.0,87,0.00,,---,0.00,VWS V14.01,2013-02-21 16:03:00,
2013-02-21 10:08:00,23.1,19.5,30.39,North,355,1.0,4.0,86,0.00,,---,0.00,VWS V14.01,2013-02-21 16:08:00,
2013-02-21 10:13:00,23.1,19.5,30.38,North,9,1.0,6.0,86,0.00,,---,0.00,VWS V14.01,2013-02-21 16:13:00,
2013-02-21 10:18:00,23.1,19.5,30.38,North,5,2.0,4.0,86,0.00,,---,0.00,VWS V14.01,2013-02-21 16:18:00,
2013-02-21 10:23:00,23.2,19.6,30.38,North,360,2.0,5.0,86,0.00,,---,0.00,VWS V14.01,2013-02-21 16:23:00,
2013-02-21 10:28:00,23.2,19.6,30.38,North,360,0.0,6.0,86,0.00,,---,0.00,VWS V14.01,2013-02-21 16:28:00,
2013-02-21 10:33:00,23.3,19.7,30.39,North,360,3.0,3.0,86,0.00,,---,0.00,VWS V14.01,2013-02-21 16:33:00,
2013-02-21 10:38:00,23.3,19.7,30.39,North,360,1.0,2.0,86,0.00,,---,0.00,VWS V14.01,2013-02-21 16:38:00,
2013-02-21 10:43:00,23.5,19.9,30.38,North,360,0.0,3.0,86,0.00,,---,0.00,VWS V14.01,2013-02-21 16:43:00,
2013-02-21 10:48:00,23.5,19.9,30.38,North,360,1.0,2.0,86,0.00,,---,0.00,VWS V14.01,2013-02-21 16:48:00,
2013-02-21 10:53:00,23.7,20.1,30.38,North,360,4.0,6.0,86,0.00,,---,0.00,VWS V14.01,2013-02-21 16:53:00,
2013-02-21 10:58:00,23.9,20.3,30.39,North,360,0.0,6.0,86,0.00,,---,0.00,VWS V14.01,2013-02-21 16:58:00,
2013-02-21 11:03:00,23.9,20.3,30.38,North,360,1.0,4.0,86,0.00,,---,0.00,VWS V14.01,2013-02-21 17:03:00,
2013-02-21 11:08:00,24.0,20.4,30.38,North,355,1.0,3.0,86,0.00,,---,0.00,VWS V14.01,2013-02-21 17:08:00,
2013-02-21 11:13:00,24.1,20.5,30.37,North,5,2.0,5.0,86,0.00,,---,0.00,VWS V14.01,2013-02-21 17:13:00,
2013-02-21 11:18:00,24.2,20.6,30.36,North,5,4.0,8.0,86,0.00,,---,0.00,VWS V14.01,2013-02-21 17:18:00,
2013-02-21 11:23:00,24.2,20.6,30.35,North,360,6.0,8.0,86,0.00,,---,0.00,VWS V14.01,2013-02-21 17:23:00,
2013-02-21 11:28:00,24.3,20.7,30.35,North,360,3.0,8.0,86,0.00,,---,0.00,VWS V14.01,2013-02-21 17:28:00,
2013-02-21 11:33:00,24.3,20.7,30.34,North,355,5.0,8.0,86,0.00,,---,0.00,VWS V14.01,2013-02-21 17:33:00,
2013-02-21 11:38:00,24.5,20.9,30.33,NE,42,2.0,4.0,86,0.00,,---,0.00,VWS V14.01,2013-02-21 17:38:00,
2013-02-21 11:43:00,24.7,21.1,30.33,North,5,1.0,5.0,86,0.00,,---,0.00,VWS V14.01,2013-02-21 17:43:00,
2013-02-21 11:48:00,24.7,21.1,30.34,NNW,338,7.0,7.0,86,0.00,,---,0.00,VWS V14.01,2013-02-21 17:48:00,
2013-02-21 11:53:00,24.8,21.2,30.35,NE,36,3.0,5.0,86,0.00,,---,0.00,VWS V14.01,2013-02-21 17:53:00,
2013-02-21 11:58:00,24.8,21.2,30.35,North,5,2.0,3.0,86,0.00,,---,0.00,VWS V14.01,2013-02-21 17:58:00,
2013-02-21 12:03:00,25.0,21.4,30.34,NE,46,0.0,5.0,86,0.00,,---,0.00,VWS V14.01,2013-02-21 18:03:00,
2013-02-21 12:08:00,25.1,21.5,30.33,North,350,2.0,4.0,86,0.00,,---,0.00,VWS V14.01,2013-02-21 18:08:00,
2013-02-21 12:13:00,25.2,21.6,30.34,North,360,0.0,2.0,86,0.00,,---,0.00,VWS V14.01,2013-02-21 18:13:00,
2013-02-21 12:18:00,25.3,21.7,30.32,NE,43,1.0,6.0,86,0.00,,---,0.00,VWS V14.01,2013-02-21 18:18:00,
2013-02-21 12:23:00,25.4,21.8,30.32,NE,48,0.0,3.0,86,0.00,,---,0.00,VWS V14.01,2013-02-21 18:23:00,
2013-02-21 12:28:00,25.6,22.3,30.31,NE,42,0.0,2.0,87,0.00,,---,0.00,VWS V14.01,2013-02-21 18:28:00,
2013-02-21 12:33:00,25.7,22.1,30.31,NNE,20,0.0,13.0,86,0.00,,---,0.00,VWS V14.01,2013-02-21 18:33:00,
2013-02-21 12:38:00,25.7,22.1,30.30,NE,39,1.0,8.0,86,0.00,,---,0.00,VWS V14.01,2013-02-21 18:38:00,
2013-02-21 12:43:00,25.8,22.2,30.29,NNE,22,1.0,10.0,86,0.00,,---,0.00,VWS V14.01,2013-02-21 18:43:00,
2013-02-21 12:48:00,25.8,22.2,30.29,NNE,28,3.0,11.0,86,0.00,,---,0.00,VWS V14.01,2013-02-21 18:48:00,
2013-02-21 12:53:00,25.8,22.2,30.29,ENE,57,3.0,11.0,86,0.00,,---,0.00,VWS V14.01,2013-02-21 18:53:00,
2013-02-21 12:57:00,25.8,22.2,30.29,NE,46,1.0,5.0,86,0.00,,---,0.00,VWS V14.01,2013-02-21 18:57:00,
2013-02-21 13:02:00,25.9,22.3,30.28,NE,46,5.0,15.0,86,0.00,,---,0.00,VWS V14.01,2013-02-21 19:02:00,
2013-02-21 13:07:00,26.0,22.4,30.27,NNE,32,3.0,11.0,86,0.00,,---,0.00,VWS V14.01,2013-02-21 19:07:00,
2013-02-21 13:12:00,26.1,22.5,30.27,NE,55,1.0,10.0,86,0.00,,---,0.00,VWS V14.01,2013-02-21 19:12:00,
2013-02-21 13:17:00,26.3,23.0,30.27,NE,51,2.0,10.0,87,0.00,,---,0.00,VWS V14.01,2013-02-21 19:17:00,
2013-02-21 13:22:00,26.4,22.8,30.27,NE,40,3.0,10.0,86,0.00,,---,0.00,VWS V14.01,2013-02-21 19:22:00,
2013-02-21 13:27:00,26.4,22.8,30.26,ENE,61,3.0,11.0,86,0.00,,---,0.00,VWS V14.01,2013-02-21 19:27:00,
2013-02-21 13:32:00,26.3,23.0,30.26,ENE,61,17.0,17.0,87,0.00,,---,0.00,VWS V14.01,2013-02-21 19:32:00,
2013-02-21 13:37:00,26.2,22.9,30.25,NE,39,0.0,11.0,87,0.00,,---,0.00,VWS V14.01,2013-02-21 19:37:00,
2013-02-21 13:42:00,26.2,22.9,30.25,North,360,4.0,10.0,87,0.00,,---,0.00,VWS V14.01,2013-02-21 19:42:00,
2013-02-21 13:47:00,26.2,22.9,30.25,NE,52,7.0,12.0,87,0.00,,---,0.00,VWS V14.01,2013-02-21 19:47:00,
2013-02-21 13:52:00,26.2,23.1,30.25,NE,44,1.0,6.0,88,0.00,,---,0.00,VWS V14.01,2013-02-21 19:52:00,
2013-02-21 13:57:00,26.2,23.1,30.25,NNE,22,13.0,13.0,88,0.00,,---,0.00,VWS V14.01,2013-02-21 19:57:00,
2013-02-21 14:02:00,26.2,23.1,30.25,NE,44,0.0,4.0,88,0.00,,---,0.00,VWS V14.01,2013-02-21 20:02:00,
2013-02-21 14:07:00,26.3,23.2,30.25,NE,49,2.0,10.0,88,0.00,,---,0.00,VWS V14.01,2013-02-21 20:07:00,
2013-02-21 14:12:00,26.3,23.2,30.26,NE,47,2.0,10.0,88,0.00,,---,0.00,VWS V14.01,2013-02-21 20:12:00,
2013-02-21 14:17:00,26.2,23.1,30.25,NE,40,0.0,8.0,88,0.00,,---,0.00,VWS V14.01,2013-02-21 20:17:00,
2013-02-21 14:22:00,26.3,23.2,30.25,NE,44,1.0,7.0,88,0.00,,---,0.00,VWS V14.01,2013-02-21 20:22:00,
2013-02-21 14:27:00,26.3,23.5,30.25,NNE,12,3.0,10.0,89,0.00,,---,0.00,VWS V14.01,2013-02-21 20:27:00,
2013-02-21 14:32:00,26.5,23.7,30.25,NE,49,2.0,8.0,89,0.00,,---,0.00,VWS V14.01,2013-02-21 20:32:00,
2013-02-21 14:37:00,26.6,23.8,30.25,NE,50,1.0,16.0,89,0.00,,---,0.00,VWS V14.01,2013-02-21 20:37:00,
2013-02-21 14:42:00,26.7,23.9,30.25,NE,55,1.0,8.0,89,0.00,,---,0.00,VWS V14.01,2013-02-21 20:42:00,
2013-02-21 14:47:00,27.0,24.2,30.24,NE,55,5.0,16.0,89,0.00,,---,0.00,VWS V14.01,2013-02-21 20:47:00,
2013-02-21 14:52:00,27.2,24.1,30.24,ENE,71,7.0,16.0,88,0.00,,---,0.00,VWS V14.01,2013-02-21 20:52:00,
2013-02-21 14:57:00,27.5,24.1,30.25,NE,38,7.0,23.0,87,0.00,,---,0.00,VWS V14.01,2013-02-21 20:57:00,
2013-02-21 15:02:00,27.6,24.2,30.26,ENE,65,6.0,22.0,87,0.00,,---,0.00,VWS V14.01,2013-02-21 21:02:00,
2013-02-21 15:07:00,27.6,24.2,30.26,ENE,76,5.0,16.0,87,0.00,,---,0.00,VWS V14.01,2013-02-21 21:07:00,
2013-02-21 15:12:00,27.6,24.2,30.27,NE,46,4.0,13.0,87,0.00,,---,0.00,VWS V14.01,2013-02-21 21:12:00,
2013-02-21 15:17:00,27.5,24.1,30.26,ENE,57,3.0,15.0,87,0.00,,---,0.00,VWS V14.01,2013-02-21 21:17:00,
2013-02-21 15:22:00,27.5,24.1,30.26,NNE,28,7.0,10.0,87,0.00,,---,0.00,VWS V14.01,2013-02-21 21:22:00,
2013-02-21 15:27:00,27.4,23.8,30.26,North,355,7.0,20.0,86,0.00,,---,0.00,VWS V14.01,2013-02-21 21:27:00,
2013-02-21 15:32:00,27.4,24.0,30.25,ENE,68,2.0,17.0,87,0.00,,---,0.00,VWS V14.01,2013-02-21 21:32:00,
2013-02-21 15:37:00,27.4,24.0,30.24,NE,34,3.0,12.0,87,0.00,,---,0.00,VWS V14.01,2013-02-21 21:37:00,
2013-02-21 15:42:00,27.4,24.0,30.24,ENE,78,11.0,25.0,87,0.00,,---,0.00,VWS V14.01,2013-02-21 21:42:00,
2013-02-21 15:47:00,27.3,24.0,30.24,ENE,61,2.0,16.0,87,0.00,,---,0.00,VWS V14.01,2013-02-21 21:47:00,
2013-02-21 15:52:00,27.4,24.0,30.24,East,96,5.0,14.0,87,0.00,,---,0.00,VWS V14.01,2013-02-21 21:52:00,
2013-02-21 15:57:00,27.4,24.0,30.24,ENE,73,2.0,10.0,87,0.00,,---,0.00,VWS V14.01,2013-02-21 21:57:00,
2013-02-21 16:02:00,27.3,23.7,30.24,East,79,6.0,17.0,86,0.00,,---,0.00,VWS V14.01,2013-02-21 22:02:00,
2013-02-21 16:07:00,27.3,23.7,30.24,East,86,4.0,12.0,86,0.00,,---,0.00,VWS V14.01,2013-02-21 22:07:00,
2013-02-21 16:12:00,27.2,23.6,30.24,ENE,78,6.0,12.0,86,0.00,,---,0.00,VWS V14.01,2013-02-21 22:12:00,
2013-02-21 16:17:00,27.2,23.6,30.24,ENE,70,8.0,12.0,86,0.00,,---,0.00,VWS V14.01,2013-02-21 22:17:00,
2013-02-21 16:22:00,27.2,23.6,30.24,ENE,62,4.0,18.0,86,0.00,,---,0.00,VWS V14.01,2013-02-21 22:22:00,
2013-02-21 16:27:00,27.2,23.6,30.24,East,86,3.0,16.0,86,0.00,,---,0.00,VWS V14.01,2013-02-21 22:27:00,
2013-02-21 16:32:00,27.1,23.5,30.24,ESE,102,6.0,17.0,86,0.00,,---,0.00,VWS V14.01,2013-02-21 22:32:00,
2013-02-21 16:37:00,27.1,23.5,30.25,East,90,8.0,13.0,86,0.00,,---,0.00,VWS V14.01,2013-02-21 22:37:00,
2013-02-21 16:42:00,27.0,23.4,30.24,ENE,70,2.0,11.0,86,0.00,,---,0.00,VWS V14.01,2013-02-21 22:42:00,
2013-02-21 16:47:00,27.0,23.4,30.23,ENE,62,10.0,11.0,86,0.00,,---,0.00,VWS V14.01,2013-02-21 22:47:00,
2013-02-21 16:52:00,27.0,23.4,30.23,ENE,67,6.0,15.0,86,0.00,,---,0.00,VWS V14.01,2013-02-21 22:52:00,
2013-02-21 16:57:00,27.0,23.4,30.23,East,93,4.0,7.0,86,0.00,,---,0.00,VWS V14.01,2013-02-21 22:57:00,
2013-02-21 17:02:00,27.0,23.4,30.23,East,92,2.0,11.0,86,0.00,,---,0.00,VWS V14.01,2013-02-21 23:02:00,
2013-02-21 17:07:00,27.0,23.4,30.23,ENE,71,4.0,7.0,86,0.00,,---,0.00,VWS V14.01,2013-02-21 23:07:00,
2013-02-21 17:12:00,27.0,23.4,30.22,NE,52,5.0,10.0,86,0.00,,---,0.00,VWS V14.01,2013-02-21 23:12:00,
2013-02-21 17:17:00,27.0,23.4,30.22,East,82,3.0,15.0,86,0.00,,---,0.00,VWS V14.01,2013-02-21 23:17:00,
2013-02-21 17:22:00,27.0,23.4,30.22,ENE,76,7.0,11.0,86,0.00,,---,0.00,VWS V14.01,2013-02-21 23:22:00,
2013-02-21 17:27:00,27.0,23.1,30.22,East,84,5.0,9.0,85,0.00,,---,0.00,VWS V14.01,2013-02-21 23:27:00,
2013-02-21 17:32:00,27.0,23.1,30.21,East,94,8.0,14.0,85,0.00,,---,0.00,VWS V14.01,2013-02-21 23:32:00,
2013-02-21 17:37:00,27.0,23.4,30.21,ENE,66,5.0,14.0,86,0.00,,---,0.00,VWS V14.01,2013-02-21 23:37:00,
2013-02-21 17:42:00,27.1,23.2,30.21,East,80,3.0,10.0,85,0.00,,---,0.00,VWS V14.01,2013-02-21 23:42:00,
2013-02-21 17:47:00,27.1,23.2,30.21,NE,51,4.0,11.0,85,0.00,,---,0.00,VWS V14.01,2013-02-21 23:47:00,
2013-02-21 17:52:00,27.1,23.2,30.20,ENE,68,5.0,11.0,85,0.00,,---,0.00,VWS V14.01,2013-02-21 23:52:00,
2013-02-21 17:57:00,27.2,23.3,30.20,NE,54,8.0,13.0,85,0.00,,---,0.00,VWS V14.01,2013-02-21 23:57:00,
2013-02-21 18:02:00,27.2,23.3,30.20,ENE,68,3.0,12.0,85,0.00,,---,0.00,VWS V14.01,2013-02-22 00:02:00,
2013-02-21 18:07:00,27.3,23.4,30.19,ENE,77,3.0,9.0,85,0.00,,---,0.00,VWS V14.01,2013-02-22 00:07:00,
2013-02-21 18:12:00,27.3,23.4,30.19,ESE,117,2.0,9.0,85,0.00,,---,0.00,VWS V14.01,2013-02-22 00:12:00,
2013-02-21 18:17:00,27.4,23.5,30.20,ENE,71,2.0,14.0,85,0.00,,---,0.00,VWS V14.01,2013-02-22 00:17:00,
2013-02-21 18:22:00,27.4,23.2,30.20,ENE,69,2.0,14.0,84,0.00,,---,0.00,VWS V14.01,2013-02-22 00:22:00,
2013-02-21 18:27:00,27.5,23.3,30.19,ESE,104,5.0,23.0,84,0.00,,---,0.00,VWS V14.01,2013-02-22 00:27:00,
2013-02-21 18:32:00,27.5,23.3,30.19,ENE,58,4.0,15.0,84,0.00,,---,0.00,VWS V14.01,2013-02-22 00:32:00,
2013-02-21 18:37:00,27.6,23.4,30.18,ENE,71,7.0,14.0,84,0.00,,---,0.00,VWS V14.01,2013-02-22 00:37:00,
2013-02-21 18:42:00,27.6,23.4,30.19,ENE,68,11.0,12.0,84,0.00,,---,0.00,VWS V14.01,2013-02-22 00:42:00,
2013-02-21 18:47:00,27.6,23.1,30.18,ENE,61,6.0,8.0,83,0.00,,---,0.00,VWS V14.01,2013-02-22 00:47:00,
2013-02-21 18:52:00,27.7,23.2,30.18,East,98,7.0,13.0,83,0.00,,---,0.00,VWS V14.01,2013-02-22 00:52:00,
2013-02-21 18:57:00,27.8,23.3,30.18,East,81,4.0,8.0,83,0.00,,---,0.00,VWS V14.01,2013-02-22 00:57:00,
2013-02-21 19:02:00,27.8,23.3,30.18,ENE,74,8.0,12.0,83,0.00,,---,0.00,VWS V14.01,2013-02-22 01:02:00,
2013-02-21 19:07:00,27.8,23.3,30.17,East,95,4.0,14.0,83,0.00,,---,0.00,VWS V14.01,2013-02-22 01:07:00,
2013-02-21 19:12:00,27.9,23.1,30.16,East,84,3.0,20.0,82,0.00,,---,0.00,VWS V14.01,2013-02-22 01:12:00,
2013-02-21 19:17:00,27.9,23.4,30.16,East,95,4.0,9.0,83,0.00,,---,0.00,VWS V14.01,2013-02-22 01:17:00,
2013-02-21 19:22:00,27.9,23.1,30.15,ENE,69,6.0,11.0,82,0.00,,---,0.00,VWS V14.01,2013-02-22 01:22:00,
2013-02-21 19:27:00,28.0,23.2,30.15,East,100,11.0,12.0,82,0.00,,---,0.00,VWS V14.01,2013-02-22 01:27:00,
2013-02-21 19:32:00,28.0,23.2,30.15,East,96,7.0,20.0,82,0.00,,---,0.00,VWS V14.01,2013-02-22 01:32:00,
2013-02-21 19:37:00,28.1,23.3,30.15,ENE,59,4.0,16.0,82,0.00,,---,0.00,VWS V14.01,2013-02-22 01:37:00,
2013-02-21 19:42:00,28.1,23.3,30.15,East,87,10.0,22.0,82,0.00,,---,0.00,VWS V14.01,2013-02-22 01:42:00,
2013-02-21 19:47:00,28.1,23.3,30.15,East,82,11.0,13.0,82,0.00,,---,0.00,VWS V14.01,2013-02-22 01:47:00,
2013-02-21 19:52:00,28.1,23.3,30.15,ESE,117,5.0,14.0,82,0.00,,---,0.00,VWS V14.01,2013-02-22 01:52:00,
2013-02-21 19:57:00,28.1,23.3,30.15,East,91,1.0,16.0,82,0.00,,---,0.00,VWS V14.01,2013-02-22 01:57:00,
2013-02-21 20:02:00,28.1,23.3,30.14,ESE,118,6.0,19.0,82,0.00,,---,0.00,VWS V14.01,2013-02-22 02:02:00,
2013-02-21 20:07:00,28.1,23.3,30.14,ESE,113,7.0,11.0,82,0.00,,---,0.00,VWS V14.01,2013-02-22 02:07:00,
2013-02-21 20:12:00,28.1,23.3,30.14,SE,126,5.0,8.0,82,0.00,,---,0.00,VWS V14.01,2013-02-22 02:12:00,
2013-02-21 20:17:00,28.1,23.3,30.13,ENE,72,6.0,18.0,82,0.00,,---,0.00,VWS V14.01,2013-02-22 02:17:00,
2013-02-21 20:22:00,28.0,22.9,30.11,East,85,12.0,21.0,81,0.00,,---,0.00,VWS V14.01,2013-02-22 02:22:00,
2013-02-21 20:27:00,28.0,22.9,30.11,ENE,63,19.0,19.0,81,0.00,,---,0.00,VWS V14.01,2013-02-22 02:27:00,
2013-02-21 20:32:00,28.0,22.9,30.09,ESE,104,14.0,18.0,81,0.00,,---,0.00,VWS V14.01,2013-02-22 02:32:00,
2013-02-21 20:37:00,28.0,22.9,30.09,East,96,8.0,15.0,81,0.00,,---,0.00,VWS V14.01,2013-02-22 02:37:00,
2013-02-21 20:42:00,28.0,22.9,30.09,East,96,5.0,16.0,81,0.00,,---,0.00,VWS V14.01,2013-02-22 02:42:00,
2013-02-21 20:47:00,28.0,23.2,30.07,NE,51,12.0,24.0,82,0.00,,---,0.00,VWS V14.01,2013-02-22 02:47:00,
2013-02-21 20:52:00,28.0,23.2,30.07,East,84,5.0,21.0,82,0.00,,---,0.00,VWS V14.01,2013-02-22 02:52:00,
2013-02-21 20:57:00,28.0,23.2,30.08,ENE,78,10.0,17.0,82,0.00,,---,0.00,VWS V14.01,2013-02-22 02:57:00,
2013-02-21 21:02:00,28.0,23.2,30.09,SE,135,22.0,22.0,82,0.00,,---,0.00,VWS V14.01,2013-02-22 03:02:00,
2013-02-21 21:07:00,28.1,23.3,30.10,ESE,107,11.0,16.0,82,0.00,,---,0.00,VWS V14.01,2013-02-22 03:07:00,
2013-02-21 21:12:00,28.1,23.3,30.10,ENE,76,6.0,17.0,82,0.00,,---,0.00,VWS V14.01,2013-02-22 03:12:00,
2013-02-21 21:17:00,28.1,23.3,30.10,East,83,12.0,19.0,82,0.00,,---,0.00,VWS V14.01,2013-02-22 03:17:00,
2013-02-21 21:22:00,28.1,23.3,30.10,ENE,71,3.0,18.0,82,0.00,,---,0.00,VWS V14.01,2013-02-22 03:22:00,
2013-02-21 21:27:00,28.1,23.3,30.09,East,92,8.0,18.0,82,0.00,,---,0.00,VWS V14.01,2013-02-22 03:27:00,
2013-02-21 21:32:00,28.0,23.2,30.08,ENE,78,4.0,21.0,82,0.00,,---,0.00,VWS V14.01,2013-02-22 03:32:00,
2013-02-21 21:37:00,28.0,23.2,30.08,NE,53,12.0,23.0,82,0.00,,---,0.00,VWS V14.01,2013-02-22 03:37:00,
2013-02-21 21:41:00,28.0,23.2,30.08,East,79,4.0,8.0,82,0.00,,---,0.00,VWS V14.01,2013-02-22 03:41:00,
2013-02-21 21:46:00,28.0,23.2,30.08,ESE,105,4.0,18.0,82,0.00,,---,0.00,VWS V14.01,2013-02-22 03:46:00,
2013-02-21 21:51:00,27.9,23.1,30.08,ENE,59,17.0,20.0,82,0.00,,---,0.00,VWS V14.01,2013-02-22 03:51:00,
2013-02-21 21:56:00,27.9,23.1,30.07,ENE,69,6.0,18.0,82,0.00,,---,0.00,VWS V14.01,2013-02-22 03:56:00,
2013-02-21 22:02:00,27.9,23.1,30.07,East,101,13.0,19.0,82,0.00,,---,0.00,VWS V14.01,2013-02-22 04:02:00,
2013-02-21 22:07:00,27.9,23.1,30.07,ESE,107,9.0,18.0,82,0.00,,---,0.00,VWS V14.01,2013-02-22 04:07:00,
2013-02-21 22:12:00,27.9,23.1,30.07,ESE,115,21.0,21.0,82,0.00,,---,0.00,VWS V14.01,2013-02-22 04:12:00,
2013-02-21 22:17:00,27.9,23.1,30.06,SE,128,8.0,28.0,82,0.00,,---,0.00,VWS V14.01,2013-02-22 04:17:00,
2013-02-21 22:22:00,27.9,23.1,30.06,ENE,76,3.0,15.0,82,0.00,,---,0.00,VWS V14.01,2013-02-22 04:22:00,
2013-02-21 22:27:00,27.9,23.1,30.06,ENE,62,4.0,21.0,82,0.00,,---,0.00,VWS V14.01,2013-02-22 04:27:00,
2013-02-21 22:32:00,27.8,23.0,30.06,ESE,115,16.0,16.0,82,0.00,,---,0.00,VWS V14.01,2013-02-22 04:32:00,
2013-02-21 22:36:00,27.9,23.1,30.07,ENE,68,4.0,8.0,82,0.00,,---,0.00,VWS V14.01,2013-02-22 04:36:00,
2013-02-21 22:41:00,27.9,23.1,30.08,SE,128,12.0,24.0,82,0.00,,---,0.00,VWS V14.01,2013-02-22 04:41:00,
2013-02-21 22:46:00,27.9,23.1,30.08,ENE,71,5.0,13.0,82,0.00,,---,0.00,VWS V14.01,2013-02-22 04:46:00,
2013-02-21 22:51:00,27.9,23.4,30.08,ESE,105,14.0,14.0,83,0.00,,---,0.00,VWS V14.01,2013-02-22 04:51:00,
2013-02-21 22:56:00,28.0,23.5,30.07,ENE,76,3.0,16.0,83,0.00,,---,0.00,VWS V14.01,2013-02-22 04:56:00,
2013-02-21 23:00:00,27.9,23.4,30.07,NE,51,7.0,26.0,83,0.00,,---,0.00,VWS V14.01,2013-02-22 05:00:00,
2013-02-21 23:05:00,27.9,23.4,30.06,East,88,3.0,16.0,83,0.00,,---,0.00,VWS V14.01,2013-02-22 05:05:00,
2013-02-21 23:10:00,27.9,23.4,30.06,ESE,105,6.0,25.0,83,0.00,,---,0.00,VWS V14.01,2013-02-22 05:10:00,
2013-02-21 23:15:00,27.9,23.4,30.06,East,94,9.0,16.0,83,0.00,,---,0.00,VWS V14.01,2013-02-22 05:15:00,
2013-02-21 23:20:00,27.8,23.3,30.05,East,101,12.0,22.0,83,0.00,,---,0.00,VWS V14.01,2013-02-22 05:20:00,
2013-02-21 23:25:00,27.7,23.2,30.05,ENE,76,11.0,20.0,83,0.00,,---,0.00,VWS V14.01,2013-02-22 05:25:00,
2013-02-21 23:30:00,27.7,22.9,30.04,ENE,66,3.0,22.0,82,0.00,,---,0.00,VWS V14.01,2013-02-22 05:30:00,
2013-02-21 23:35:00,27.6,22.8,30.04,ESE,105,19.0,28.0,82,0.00,,---,0.00,VWS V14.01,2013-02-22 05:35:00,
2013-02-21 23:40:00,27.6,22.8,30.04,East,79,6.0,13.0,82,0.00,,---,0.00,VWS V14.01,2013-02-22 05:40:00,
2013-02-21 23:45:00,27.5,23.0,30.04,East,95,5.0,17.0,83,0.00,,---,0.00,VWS V14.01,2013-02-22 05:45:00,
2013-02-21 23:50:00,27.2,23.3,30.04,East,86,3.0,21.0,85,0.00,,---,0.00,VWS V14.01,2013-02-22 05:50:00,
2013-02-21 23:55:00,26.8,23.5,30.04,ENE,76,3.0,21.0,87,0.00,,---,0.00,VWS V14.01,2013-02-22 05:55:00,